SCP
0 0 0 0 0 0 0 0 0 0 0 0 0 0 0 0 0 0 0 0 1 1 1 1 1 1 2 2 3 3 2 2 2 2 1 1 1 1 1 1 1 1 1 1
0 0 0 0 0 0 0 0 0 0 0 0 0 0 0 0 0 0 0 0 1 1 1 1 1 1 2 2 2 2 2 2 2 2 2 1 1 1 1 1 1 1 1 1
0 0 0 0 0 0 0 0 0 0 0 0 0 0 0 0 0 0 0 1 1 1 1 1 1 1 2 2 2 2 2 2 2 2 2 1 1 1 1 1 1 1 1 1
0 0 0 0 0 0 0 0 0 0 0 0 0 0 0 0 0 0 0 0 1 1 1 1 1 1 2 2 2 2 2 2 2 2 2 1 1 1 1 1 1 1 1 1
0 0 0 0 0 0 0 0 0 0 0 0 0 0 0 0 0 0 0 1 1 1 1 1 1 1 2 2 2 2 2 2 2 2 2 1 1 1 1 1 1 1 1 1
0 0 0 0 0 0 0 0 0 0 0 0 0 0 0 0 0 0 1 1 1 1 1 1 1 1 1 2 2 2 2 2 2 2 2 1 1 1 1 1 1 1 1 1
0 0 0 0 0 0 0 0 0 0 0 0 0 0 0 0 0 0 1 1 1 1 1 1 1 1 1 2 2 2 2 2 2 2 2 1 1 1 1 1 1 1 1 1
0 0 0 0 0 0 0 0 0 0 0 0 0 0 0 0 0 0 0 0 1 1 1 1 1 1 1 2 2 2 2 2 2 2 1 1 1 1 1 1 1 1 1 1
0 0 0 0 0 0 0 0 0 0 0 0 0 0 0 0 0 0 0 0 1 1 1 1 1 1 1 2 2 2 2 2 2 1 1 1 1 1 1 1 1 1 1 1
0 0 0 0 0 0 0 0 0 0 0 0 0 0 0 0 0 0 0 0 1 1 1 1 1 1 1 1 2 2 2 2 1 1 1 1 1 1 1 1 1 1 1 1
0 0 0 0 0 0 0 0 0 0 0 0 0 0 0 0 0 0 0 1 1 1 1 1 1 1 1 1 1 1 2 1 1 1 1 1 1 1 1 1 1 1 1 1
0 0 0 0 0 0 0 0 0 0 0 0 0 0 0 0 0 0 0 1 1 1 1 1 1 1 1 1 1 1 1 1 1 1 1 1 1 1 1 1 1 1 1 1
0 0 0 0 0 0 0 0 0 0 0 0 0 0 0 0 0 0 1 1 1 1 1 1 1 1 1 1 1 1 1 1 1 1 1 1 1 1 1 1 1 1 0 0
0 0 0 0 0 0 0 0 0 0 0 0 0 0 0 0 0 0 1 1 1 1 1 1 1 1 1 1 1 1 1 1 1 1 1 1 1 1 1 1 0 0 0 0
0 0 0 0 0 0 0 0 0 0 0 0 0 0 0 0 0 1 1 1 1 1 1 1 1 1 1 1 1 1 1 1 1 1 1 1 1 1 1 0 0 0 0 0
0 0 0 0 0 0 0 0 0 0 0 0 0 0 0 0 1 1 1 1 1 1 1 1 1 1 1 1 1 1 1 1 1 1 1 1 1 1 1 0 0 0 0 0
0 0 0 0 0 0 0 0 0 0 0 0 0 0 0 0 1 1 1 1 1 1 1 1 1 1 1 1 1 1 1 1 1 1 1 1 1 1 0 0 0 0 0 0
0 0 0 0 0 0 0 0 0 0 0 0 0 0 0 0 1 1 1 1 1 1 1 1 1 1 1 1 1 1 1 1 1 1 1 1 1 1 1 1 1 1 1 1
0 0 0 0 0 0 0 0 0 0 0 0 0 0 0 1 1 1 1 1 1 1 1 1 1 1 1 1 1 1 1 1 1 1 1 1 1 1 1 1 1 1 1 1
0 0 0 0 0 0 0 0 0 0 0 0 0 1 1 1 1 1 1 1 1 1 1 1 1 1 1 1 1 1 1 1 1 1 1 1 1 1 1 1 1 1 1 1
0 0 0 0 0 0 0 0 0 0 0 0 1 1 1 1 1 1 1 1 1 1 1 1 1 1 1 1 1 1 1 1 1 0 0 1 1 1 1 1 1 1 1 1
0 0 0 0 0 0 0 0 0 0 0 0 0 1 1 1 1 1 1 1 1 1 1 1 1 1 1 1 1 1 1 1 0 0 0 0 0 1 1 1 1 1 1 1
0 0 0 0 0 0 0 0 0 0 0 0 0 0 0 1 1 1 1 1 1 1 1 1 1 1 1 1 1 1 1 1 0 0 0 0 0 0 0 0 0 0 0 0
0 0 0 0 0 0 0 0 0 0 0 0 0 0 0 0 1 1 1 1 1 1 1 1 1 1 1 1 1 1 0 0 0 0 0 0 0 0 0 0 0 0 0 0
0 0 0 0 0 0 0 0 0 0 0 0 0 0 0 0 0 1 1 1 1 0 0 0 1 1 1 1 0 0 0 0 0 0 0 0 0 0 0 0 0 0 0 0
0 0 0 0 0 0 0 0 0 0 0 0 0 0 0 0 0 0 0 0 0 0 0 0 0 0 0 0 0 0 0 0 1 1 0 0 0 0 0 0 0 0 0 0
Wind_Speed
15 15 15 16 16 16 15 15 14 14 10 10 12 11 9 8 9 8 8 8 7 7 8 9 8 8 9 10 9 8 8 7 5 4 4 3 3 3 3 3 4 4 3 3
15 19 18 17 16 16 17 17 16 13 10 10 12 12 9 9 9 9 8 8 8 8 7 7 8 8 9 9 10 9 7 7 6 4 3 3 3 3 3 2 4 4 3 3
20 16 15 16 17 17 17 15 14 12 11 11 11 11 8 7 8 7 7 6 6 7 8 7 8 8 9 10 10 8 8 7 6 6 4 3 2 2 3 3 3 3 3 3
17 17 15 15 16 16 15 13 14 13 12 10 11 10 6 8 8 7 7 6 7 7 7 6 6 7 8 10 10 9 8 7 6 6 5 5 4 3 3 3 3 4 4 4
15 15 16 16 15 14 14 12 14 14 13 13 12 10 6 7 8 8 8 8 7 7 8 7 6 5 7 8 10 10 9 7 6 6 5 4 4 3 3 3 4 4 4 4
17 16 15 15 14 13 13 14 14 13 12 13 12 10 7 6 7 7 7 7 7 7 8 8 7 6 6 7 9 9 9 8 6 5 5 4 3 3 3 3 4 3 3 3
17 18 16 13 13 12 11 10 8 8 9 10 8 9 6 5 6 6 7 7 7 7 8 9 9 7 7 7 7 9 9 8 7 6 5 4 3 3 3 3 4 3 3 3
14 14 15 12 12 11 12 12 9 9 9 8 8 8 4 5 5 6 7 7 7 6 7 8 8 8 7 8 7 7 8 7 7 6 5 4 4 3 3 3 3 3 2 3
10 11 11 11 10 13 13 12 10 10 13 12 7 5 4 4 4 5 7 7 8 6 5 7 7 6 6 7 7 7 7 6 6 6 5 4 4 3 2 3 2 2 2 3
12 12 11 8 8 10 12 9 6 8 9 10 9 6 2 4 5 5 6 7 7 7 7 6 6 6 5 6 7 6 6 6 5 4 4 4 4 3 3 3 3 2 2 2
10 11 11 9 9 9 10 10 9 8 8 8 8 3 1 1 2 3 4 6 6 7 7 7 6 6 5 6 6 6 5 4 4 4 3 3 4 4 3 3 3 2 2 2
6 7 9 11 10 9 9 9 8 7 7 8 8 4 2 3 2 2 2 5 6 6 6 7 6 6 5 6 5 5 5 4 4 3 2 2 3 4 4 3 3 3 3 3
4 5 8 9 9 8 8 8 9 8 7 8 9 4 2 4 3 2 2 4 5 5 5 6 6 5 5 5 4 4 4 4 3 4 3 2 2 2 3 3 3 3 2 2
4 6 8 10 8 6 7 9 9 9 8 8 9 5 0 2 1 1 2 4 4 6 6 6 5 4 4 4 3 4 4 3 3 3 3 3 2 2 2 3 3 3 2 3
5 7 9 12 12 11 10 10 10 10 10 9 8 6 2 3 2 2 3 3 4 5 6 5 5 4 3 3 2 3 3 3 3 3 3 3 2 1 1 1 2 3 3 3
4 6 8 11 11 11 12 11 11 11 11 9 8 4 1 4 4 3 3 3 3 5 5 5 4 4 4 3 3 2 2 2 2 2 3 3 3 2 1 1 2 2 2 2
6 6 9 10 10 10 12 10 8 5 5 4 4 3 1 3 4 3 3 3 3 3 4 4 4 3 3 3 2 3 2 2 2 3 3 3 3 3 3 3 2 2 2 1
7 7 6 8 10 12 6 5 6 4 4 2 1 1 2 2 3 3 4 4 4 3 2 2 2 3 3 3 3 2 2 2 2 2 3 2 2 2 2 2 1 1 1 1
8 7 7 7 9 9 5 6 6 3 2 5 4 3 1 1 2 4 5 4 4 2 2 1 2 2 2 3 3 3 2 2 2 2 2 2 2 2 1 1 1 1 2 2
8 6 6 7 8 8 5 7 5 2 1 6 5 5 4 0 0 2 4 4 4 3 2 2 2 2 2 2 2 2 2 1 1 1 1 1 1 1 1 1 1 1 2 3
7 7 8 8 8 6 5 8 5 2 2 7 8 6 4 3 2 1 3 5 5 4 3 2 3 2 2 2 2 2 1 1 0 0 1 0 0 1 1 1 1 2 2 2
5 5 5 6 7 4 6 5 4 3 4 6 6 5 5 5 4 3 5 5 4 4 4 3 3 2 2 3 2 2 1 1 0 1 1 1 1 1 0 0 1 1 1 2
3 2 2 1 0 3 5 5 4 3 4 4 4 4 4 3 3 4 5 4 4 4 3 3 3 3 3 2 2 2 2 1 1 1 2 1 1 1 0 0 1 2 1 1
3 3 1 0 1 1 4 5 5 4 3 3 3 3 2 2 2 4 4 4 3 4 3 3 3 3 2 2 3 2 1 1 1 1 1 1 1 0 0 0 1 1 2 2
6 4 2 2 2 2 3 4 4 5 5 4 3 3 1 1 3 3 3 3 3 3 3 2 3 2 2 2 2 2 1 1 1 1 1 1 1 1 0 1 1 1 1 1
5 4 2 2 2 2 2 3 5 5 6 5 4 4 2 2 3 3 3 3 2 2 2 2 2 2 2 2 2 2 1 1 1 1 1 1 1 1 1 1 1 3 1 1
Wind_Direction
225 230 235 241 241 252 267 274 278 278 270 267 263 260 232 215 220 204 195 188 188 187 182 163 159 156 147 146 148 151 156 153 157 158 171 176 173 166 159 150 136 149 161 159
231 233 240 248 251 252 257 265 271 275 269 269 269 264 242 213 215 205 198 188 187 188 167 159 161 159 153 155 156 156 155 160 165 161 167 171 168 168 153 137 134 154 157 151
235 241 238 246 253 255 256 263 269 273 274 264 265 260 237 216 215 202 196 193 185 177 168 161 161 166 161 157 158 160 160 163 170 165 167 168 166 175 155 148 150 157 154 156
246 251 251 247 250 254 260 265 272 274 275 271 262 264 225 207 210 203 199 196 187 168 152 149 173 170 163 160 159 156 155 159 166 168 173 178 177 178 161 152 148 158 161 163
251 252 255 256 254 256 263 270 270 268 266 266 260 262 243 205 205 204 197 191 178 158 152 160 169 172 164 160 158 156 154 157 163 170 176 186 183 169 155 154 149 164 165 173
262 260 255 255 257 256 260 267 268 263 263 259 256 255 249 221 205 194 179 174 165 160 162 161 162 153 152 154 151 149 153 158 164 174 174 187 182 160 158 169 162 174 172 175
252 250 248 246 252 253 253 257 263 260 247 250 238 238 238 207 184 175 159 161 161 163 163 163 159 146 152 150 149 147 153 159 163 171 174 179 183 177 176 183 172 180 178 173
245 248 240 233 237 248 247 243 245 260 266 269 245 234 219 184 152 146 143 151 153 161 163 151 142 141 151 143 139 142 148 154 161 169 172 172 180 192 182 188 193 183 179 178
259 262 251 234 233 240 249 245 250 263 272 275 260 229 196 132 139 145 144 146 149 160 152 138 134 134 134 138 137 142 146 149 159 167 167 173 177 187 185 183 197 190 202 195
271 281 271 258 242 236 247 252 249 248 264 271 269 242 206 191 184 168 164 151 154 152 143 134 130 128 132 133 128 127 140 154 162 170 178 168 163 169 190 188 187 200 205 218
261 269 273 265 252 254 242 242 250 256 259 268 275 280 107 238 156 168 166 150 156 149 141 133 128 124 126 128 130 132 136 150 161 168 163 160 171 177 185 188 186 190 202 211
257 267 268 259 262 264 255 255 246 253 263 272 277 274 127 109 117 135 145 145 141 139 138 133 129 129 132 130 134 141 150 162 162 156 151 172 177 180 186 189 182 183 192 208
269 260 261 253 252 249 256 263 263 251 255 258 260 257 103 68 51 81 107 123 121 127 129 127 126 131 131 126 133 146 156 157 160 157 161 171 179 179 184 179 179 187 192 208
276 256 258 263 273 275 266 266 269 258 251 254 258 261 208 80 72 20 96 103 123 126 119 116 116 118 121 123 133 149 158 161 162 160 163 165 175 174 177 187 183 187 189 210
278 258 259 267 274 272 271 270 270 258 260 255 249 244 215 158 160 138 108 112 124 124 121 123 128 124 127 130 139 146 156 162 161 160 167 169 158 161 183 186 192 190 199 216
266 270 271 269 267 267 272 265 262 259 256 256 259 259 185 124 123 125 124 123 139 135 134 138 135 137 143 152 165 159 156 161 159 163 176 166 161 168 198 215 199 196 209 221
267 268 269 267 268 269 266 274 265 262 269 258 267 288 81 98 108 137 133 114 104 103 134 144 146 145 152 162 165 171 165 167 169 183 181 170 171 183 203 223 216 210 214 219
266 276 271 268 266 254 259 286 276 249 280 318 281 311 39 73 98 91 84 87 82 72 75 107 136 146 155 164 154 155 160 179 195 189 179 169 180 191 210 223 238 224 213 221
233 248 262 265 261 257 269 300 293 274 312 345 348 345 38 96 114 100 86 83 90 78 59 71 119 144 148 151 149 154 166 188 195 176 155 173 199 194 207 235 238 235 224 227
217 222 245 260 262 261 291 311 311 262 280 4 7 8 356 22 232 79 73 77 83 77 69 68 117 123 126 128 136 150 158 165 196 200 160 174 194 200 224 241 248 258 245 238
223 218 233 247 253 263 322 326 314 262 5 9 17 24 357 11 46 43 72 76 80 75 69 75 101 112 115 117 125 138 137 139 230 277 103 106 306 230 214 246 249 248 255 250
259 250 241 247 250 261 1 6 29 33 15 16 12 17 25 44 73 89 86 82 81 74 67 70 89 100 102 117 131 138 136 135 141 117 92 74 40 308 343 306 254 246 236 248
292 314 307 333 321 53 41 59 68 49 16 6 9 22 40 50 57 86 94 88 82 75 68 72 77 93 98 104 108 124 112 102 92 82 86 83 71 26 359 314 297 273 244 242
319 2 1 357 97 82 55 50 40 35 7 355 6 19 44 55 75 78 86 85 80 83 79 73 79 80 88 95 95 94 98 88 90 99 104 130 140 134 335 296 282 324 323 306
325 319 285 269 315 18 56 33 16 0 352 356 5 12 47 104 87 76 76 73 77 81 81 80 81 82 83 84 86 100 104 110 113 121 152 186 175 145 77 33 359 358 22 339
333 337 331 335 6 350 344 344 355 350 339 338 344 359 10 97 81 71 78 73 66 74 74 82 83 87 89 101 96 90 95 114 133 188 217 224 197 177 169 156 45 34 63 95